Location: Buena Vista
(37.7110°N, 119.7938°W)
Time: 14:29:45
(UTC+00:00)

Daily predictions for brighter satellites

Satellite Brightness Start Highest point End
(mag) Time Altitude Azimuth Time Altitude Azimuth Time Altitude Azimuth
DMSP B5D2-2 4.1 12:00:29 10° S 12:05:44 74° WSW 12:11:02 10° NNW
Cosmos-2242 3.2 12:02:06 10° N 12:06:26 78° E 12:10:42 10° S
Cosmos 1844 Rocket 4.2 12:02:12 10° WSW 12:06:26 22° NW 12:10:42 10° N
USA 234 3.7 12:00:16 10° SE 12:06:46 72° NE 12:13:19 10° NW
ATLAS 5 CENTAUR R/B 1.0 12:05:28 10° SSW 12:08:41 69° ESE 12:12:05 10° NE
Cosmos 1515 4.2 12:05:23 10° N 12:08:48 57° E 12:12:13 10° SSE
